Lexington Weather

Lexington, Massachusetts, USA

43°F
4/22/2024 8:44am 
  • Lexington Conditions: Clear
  • Temperature: 43.3°F / 6.3°CWarmer 3.7°F than last hour.
  • Dew Point: 27.3°FDecreased 2.2°Fsince last hour.
  • Relative Humidity: 53%Decreased 14.0% since last hour.
  • Wind: Calm, 10-min avg: Calm, gust: None
  • Barometer: 29.96 inRising 0.02  inHg/hr Rising Slowly
  • Visibility: 10 miles
  • Rain Today: 0.00 in
  •   

Regional Weather Roundup
for Boston, MA

        
000
ASUS41 KBOX 171110
RWRBOX

REGIONAL WEATHER ROUNDUP
NATIONAL WEATHER SERVICE BOSTON/NORTON MA
700 AM EDT WED APR 17 2024

NOTE:  "FAIR" INDICATES FEW OR NO CLOUDS BELOW 12,000 FEET WITH NO 
SIGNIFICANT WEATHER AND/OR OBSTRUCTIONS TO VISIBILITY.

MAZALL-171200-
EASTERN MASSACHUSETTS
  
CITY           SKY/WX    TMP DP  RH WIND       PRES   REMARKS
BOSTON         MOSUNNY   45  33  63 NE7       30.25R                  
BEVERLY        SUNNY     42  32  67 CALM      30.24R                  
LAWRENCE       SUNNY     41  30  65 NE5       30.26R                  
BEDFORD        SUNNY     40  33  76 CALM      30.24R                  
NORWOOD        SUNNY     47  35  63 E7        30.24R                  
MARSHFIELD     SUNNY     46  37  71 VRB7      30.24R                  
PLYMOUTH       SUNNY     45  36  70 NE8       30.23R                  
TAUNTON        SUNNY     45  36  70 MISG      30.24R                  
NEW BEDFORD    SUNNY     46  35  65 NE6       30.22S                  
$$

MAZALL-171200-
CAPE COD AND THE ISLANDS
  
CITY           SKY/WX    TMP DP  RH WIND       PRES   REMARKS
FALMOUTH       SUNNY     43  37  81 NE8       30.23R                  
HYANNIS        SUNNY     44  35  70 NE5       30.22R                  
CHATHAM        SUNNY     45  38  76 NE9       30.23R                  
PROVINCETOWN   SUNNY     44  39  82 NE9       30.24R                  
NANTUCKET      SUNNY     45  37  73 NE12      30.21R                  
MARTHAS VNYRD  SUNNY     47  38  71 NE9       30.21S                  
$$
 
MAZALL-171200-
CENTRAL AND WESTERN MASSACHUSETTS
  
CITY           SKY/WX    TMP DP  RH WIND       PRES   REMARKS
WORCESTER      CLEAR     43  31  62 E5        30.21R                  
FITCHBURG      CLEAR     38  32  79 W3        30.24S                  
ORANGE         CLEAR     34  32  92 CALM      30.24R                  
SPRINGFIELD    CLEAR     39  35  85 CALM      30.20R                  
WESTFIELD      PTCLDY    41  34  76 CALM      30.22R                  
NORTH ADAMS    CLEAR     34  30  85 CALM      30.23R                  
PITTSFIELD     CLEAR     34  31  88 CALM      30.20R                  
$$
 
RIZALL-171200-
RHODE ISLAND
  
CITY           SKY/WX    TMP DP  RH WIND       PRES   REMARKS
PROVIDENCE     PTCLDY    45  36  70 NE8       30.23S                  
NEWPORT        PTCLDY    44  34  67 NE9       30.22R                  
BLOCK ISLAND   PTCLDY    45  39  79 NE9       30.22R                  
SMITHFIELD     CLEAR     43  35  73 E6        30.23S                  
WESTERLY       PTCLDY    44  38  79 NE3       30.22R                  
$$
 
CTZALL-171200-
CONNECTICUT
  
CITY           SKY/WX    TMP DP  RH WIND       PRES   REMARKS
BRADLEY INTL   MOCLDY    45  33  63 N5        30.22R                  
HARTFORD       PTCLDY    45  35  68 N6        30.21R                  
PLAINVILLE     FAIR      43  36  76 CALM      30.21S                  
BRIDGEPORT     PTCLDY    51  35  54 NE7       30.20R                  
DANBURY        PTCLDY    40  34  79 CALM      30.21R                  
GROTON         PTCLDY    47  37  68 NE7       30.21R                  
NEW HAVEN      PTCLDY    48  36  63 NE5       30.20R                  
CHESTER        PTCLDY    48  32  53 NE3       30.21R                  
MERIDEN        PTCLDY    46  34  62 NW3       30.21R                  
WILLIMANTIC    MOCLDY    39  36  89 NE3       30.22R                  
OXFORD         PTCLDY    46  33  60 E6        30.20R                  
$$

MEZ002-015-021-024-NHZ003-005-008-011-012-014-VTZ005-008-171200-
NORTHERN NEW ENGLAND
  
CITY           SKY/WX    TMP DP  RH WIND       PRES   REMARKS
PORTLAND ME    MOSUNNY   38  25  59 N5        30.24R                  
BANGOR ME      PTSUNNY   39  26  59 NW5       30.20S                  
CONCORD NH     CLEAR     33  31  92 CALM      30.24R                  
MANCHESTER NH  PTCLDY    39  32  76 CALM      30.23R                  
NASHUA NH      CLEAR     38  38 100 CALM      30.25S                  
PORTSMOUTH NH  MOSUNNY   41  26  56 N3        30.25R                  
JAFFREY NH     CLEAR     32  29  88 CALM      30.22R                  
KEENE NH       CLEAR     32  32 100 SW5       30.24R WCI  27          
BURLINGTON VT  PTCLDY    33  28  81 E6        30.27R WCI  28          
MT. WASHINGTON MOSUNNY   21  14  73 NW35        N/A  WCI   2          
$$

NYZ052-076-171200-
EASTERN NEW YORK
  
CITY           SKY/WX    TMP DP  RH WIND       PRES   REMARKS
ALBANY         MOCLDY    42  28  57 N10       30.24R                  
NEW YORK CITY  MOCLDY    51  42  71 NE6       30.19R                  
$$
 
ANZALL-171200-
MARINE OBSERVATIONS
  
STATION/POSITION TIME  TEMP    WIND        PRES    VSBY  WAVE
                       AIR SEA DIR/SP/G                  HT/PER
                 (UTC) (F)     (DEG/KT/KT) (MB)    (MI)  (FT/S)
BOSTON BUOY      1050   44      30/ 12/ 14 1023.6R         4/ 9
BUZZARDS BAY     1000   47      50/ 15/ 15 1023.3R
NANTUCKET SOUND  1050   47 47   60/ 14/ 16 1023.1R         2/ 3
MASS BAY-STELLWA 0904   45 45   40/ 14/ 17 1022.9R  1 7/8  3/ 4
ISLE OF SHOALS   1000   42      20/ 10/ 11 1023.2R
S OF BLOCK IS    1056      45                N/A           3/ 8
$$

......................KEY.........................
  SKY/WX - SKY CONDITION/PRESENT WEATHER
  TMP    - TEMPERATURE IN FAHRENHEIT
  DWPT   - DEWPOINT IN FAHRENHEIT
  RH     - RELATIVE HUMIDITY IN PERCENT
  WIND   - DIRECTION AND SPEED IN MPH
  PRES   - MEAN SEA LEVEL PRESSURE IN INCHES OF HG
  WCI    - WIND CHILL INDEX
  VSB    - VISIBILITY IN MILES
  HX     - HEAT INDEX
  TC     - TEMPERATURE IN CELSIUS
  VRB    - VARIABLE WIND DIRECTION
  N/A    - NOT AVAILABLE
  
      

Other recent Regional Weather Roundups

Mon Apr 22, 8:10am EDT

Mon Apr 22, 7:10am EDT

Mon Apr 22, 6:10am EDT

Mon Apr 22, 5:10am EDT

Mon Apr 22, 4:10am EDT

Mon Apr 22, 3:10am EDT

Mon Apr 22, 2:10am EDT

Mon Apr 22, 1:10am EDT

Mon Apr 22, 12:10am EDT

Sun Apr 21, 11:10pm EDT

Sun Apr 21, 10:10pm EDT

Sun Apr 21, 9:10pm EDT

Sun Apr 21, 8:10pm EDT

Sun Apr 21, 7:10pm EDT

Sun Apr 21, 6:10pm EDT

Sun Apr 21, 5:10pm EDT

Sun Apr 21, 4:10pm EDT

Sun Apr 21, 3:10pm EDT

Sun Apr 21, 2:10pm EDT

Sun Apr 21, 1:10pm EDT

Sun Apr 21, 12:10pm EDT

Sun Apr 21, 11:10am EDT

Sun Apr 21, 10:10am EDT

Sun Apr 21, 9:10am EDT

Sun Apr 21, 8:10am EDT

Sun Apr 21, 7:10am EDT

Sun Apr 21, 6:10am EDT

Sun Apr 21, 5:10am EDT

Sun Apr 21, 4:10am EDT

Sun Apr 21, 3:10am EDT

Sun Apr 21, 2:10am EDT

Sun Apr 21, 1:10am EDT

Sun Apr 21, 12:10am EDT

Sat Apr 20, 11:10pm EDT

Sat Apr 20, 10:10pm EDT

Sat Apr 20, 9:10pm EDT

Sat Apr 20, 8:10pm EDT

Sat Apr 20, 7:10pm EDT

Sat Apr 20, 6:10pm EDT

Sat Apr 20, 5:10pm EDT

Sat Apr 20, 4:10pm EDT

Sat Apr 20, 3:10pm EDT

Sat Apr 20, 2:10pm EDT

Sat Apr 20, 1:10pm EDT

Sat Apr 20, 12:10pm EDT

Sat Apr 20, 11:10am EDT

Sat Apr 20, 10:10am EDT

Sat Apr 20, 9:10am EDT

Sat Apr 20, 8:10am EDT

Sat Apr 20, 7:10am EDT

Sat Apr 20, 6:10am EDT

Sat Apr 20, 5:10am EDT

Sat Apr 20, 4:10am EDT

Sat Apr 20, 3:10am EDT

Sat Apr 20, 2:10am EDT

Sat Apr 20, 1:10am EDT

Sat Apr 20, 12:10am EDT

Fri Apr 19, 11:10pm EDT

Fri Apr 19, 10:10pm EDT

Fri Apr 19, 9:10pm EDT

Fri Apr 19, 8:10pm EDT

Fri Apr 19, 7:10pm EDT

Fri Apr 19, 6:10pm EDT

Fri Apr 19, 5:10pm EDT

Fri Apr 19, 4:10pm EDT

Fri Apr 19, 3:10pm EDT

Fri Apr 19, 2:10pm EDT

Fri Apr 19, 1:10pm EDT

Fri Apr 19, 12:10pm EDT

Fri Apr 19, 11:10am EDT

Fri Apr 19, 10:10am EDT

Fri Apr 19, 9:10am EDT

Fri Apr 19, 8:10am EDT

Fri Apr 19, 7:10am EDT

Fri Apr 19, 6:10am EDT

Fri Apr 19, 5:10am EDT

Fri Apr 19, 4:10am EDT

Fri Apr 19, 3:10am EDT

Fri Apr 19, 2:10am EDT

Fri Apr 19, 1:10am EDT

Fri Apr 19, 12:10am EDT

Thu Apr 18, 11:10pm EDT

Thu Apr 18, 10:10pm EDT

Thu Apr 18, 9:10pm EDT

Thu Apr 18, 8:10pm EDT

Thu Apr 18, 7:10pm EDT

Thu Apr 18, 6:10pm EDT

Thu Apr 18, 5:10pm EDT

Thu Apr 18, 4:10pm EDT

Thu Apr 18, 3:10pm EDT

Thu Apr 18, 2:10pm EDT

Thu Apr 18, 1:10pm EDT

Thu Apr 18, 12:10pm EDT

Thu Apr 18, 11:10am EDT

Thu Apr 18, 10:10am EDT

Thu Apr 18, 9:10am EDT

Thu Apr 18, 8:10am EDT

Thu Apr 18, 7:10am EDT

Thu Apr 18, 6:10am EDT

Thu Apr 18, 5:10am EDT

Thu Apr 18, 4:10am EDT

Thu Apr 18, 3:10am EDT

Thu Apr 18, 2:10am EDT

Thu Apr 18, 1:10am EDT

Thu Apr 18, 12:10am EDT

Wed Apr 17, 11:10pm EDT

Wed Apr 17, 10:10pm EDT

Wed Apr 17, 9:10pm EDT

Wed Apr 17, 8:10pm EDT

Wed Apr 17, 7:10pm EDT

Wed Apr 17, 6:10pm EDT

Wed Apr 17, 5:10pm EDT

Wed Apr 17, 4:10pm EDT

Wed Apr 17, 3:10pm EDT

Wed Apr 17, 2:10pm EDT

Wed Apr 17, 1:10pm EDT

Wed Apr 17, 12:10pm EDT

Wed Apr 17, 11:10am EDT

Wed Apr 17, 10:10am EDT

Wed Apr 17, 9:10am EDT

Wed Apr 17, 8:10am EDT

Wed Apr 17, 6:10am EDT

Wed Apr 17, 5:10am EDT

Wed Apr 17, 4:10am EDT

Wed Apr 17, 3:10am EDT

Wed Apr 17, 2:10am EDT

Wed Apr 17, 1:10am EDT

Wed Apr 17, 12:10am EDT

Tue Apr 16, 11:10pm EDT

Tue Apr 16, 10:10pm EDT

Tue Apr 16, 9:10pm EDT

Tue Apr 16, 8:10pm EDT

Tue Apr 16, 7:10pm EDT

Tue Apr 16, 6:10pm EDT

Tue Apr 16, 5:10pm EDT

Tue Apr 16, 4:10pm EDT

Tue Apr 16, 3:10pm EDT

Tue Apr 16, 2:10pm EDT

Tue Apr 16, 1:10pm EDT

Tue Apr 16, 12:10pm EDT

Tue Apr 16, 11:10am EDT

Tue Apr 16, 10:10am EDT

Tue Apr 16, 9:10am EDT

Tue Apr 16, 8:10am EDT

Tue Apr 16, 7:10am EDT

Tue Apr 16, 6:10am EDT

Tue Apr 16, 5:10am EDT

Tue Apr 16, 4:10am EDT

Tue Apr 16, 3:10am EDT

Tue Apr 16, 2:10am EDT

Tue Apr 16, 1:10am EDT

Tue Apr 16, 12:10am EDT

Mon Apr 15, 11:10pm EDT

Mon Apr 15, 10:10pm EDT

Mon Apr 15, 9:10pm EDT

Mon Apr 15, 8:10pm EDT

Mon Apr 15, 7:10pm EDT

Mon Apr 15, 6:10pm EDT

Mon Apr 15, 5:10pm EDT

Mon Apr 15, 4:10pm EDT

Mon Apr 15, 3:10pm EDT

Mon Apr 15, 2:10pm EDT

Mon Apr 15, 1:10pm EDT

Mon Apr 15, 12:10pm EDT

Mon Apr 15, 11:10am EDT

Mon Apr 15, 10:10am EDT

Mon Apr 15, 9:10am EDT